Location: Campestrin
(46.4667°N, 11.7167°E)
Time: 04:37:52
(UTC+00:00)

Cosmos 2237 Rocket - Pass Details

Date: 18 April 2021
Orbit: 836 x 848 km, 71.0° (Epoch: 16 May)

Event Time Altitude Azimuth Distance (km) Brightness Sun altitude
Rises 19:34:20 0° 336° (NNW) 3,405 6.4 -14.6°
Reaches altitude 10° 19:36:53 10° 342° (NNW) 2,465 5.4 -15.0°
Maximum altitude 19:42:22 50° 57° (ENE) 1,059 2.6 -15.8°
Enters shadow 19:45:21 26° 121° (ESE) 1,609 3.0 -16.2°
